Palestine, IL

5:39 PM CST on December 04, 2016 (GMT -0600)
Robinson Municipal

Weather History for KRSV - December, 2012

Change the Weather History Date:

Friday, December 21, 2012

  Actual Average (KLWV) Record (KLWV)
Temperature  
Mean Temperature 30 °F 33 °F  
Max Temperature 35 °F 41 °F 59 °F (2011)
Min Temperature 24 °F 25 °F 1 °F (2000)
Degree Days  
Heating Degree Days 36 32  
Month to date heating degree days 611  
Since 1 July heating degree days 1469  
Cooling Degree Days 0 0  
Month to date cooling degree days 0  
Year to date cooling degree days 1387  
Moisture  
Dew Point 21 °F    
Average Humidity 69    
Maximum Humidity 81    
Minimum Humidity 55    
Precipitation  
Precipitation 0.00 in 0.12 in 3.23 in (2013)
Month to date precipitation 2.21  
Year to date precipitation 42.70  
Sea Level Pressure  
Sea Level Pressure 30.05 in    
Wind  
Wind Speed 22 mph (West)    
Max Wind Speed 29 mph    
Max Gust Speed 40 mph    
Visibility 9 miles    
Events Snow    
T = Trace of Precipitation, MM = Missing Value Source: NWS Daily Summary

Daily Weather History Graph

Daily Weather History Graph

Search for Another Location

Airport or City:

Trip Planner

Search our weather history database for the weather conditions in past years. The results will help you decide how hot, cold, wet, or windy it might be!

Date:

Astronomy

Dec. 21, 2012 Rise Set
Actual Time 7:06 AM CST 4:31 PM CST
Civil Twilight 6:36 AM CST 5:01 PM CST
Nautical Twilight 6:02 AM CST 5:35 PM CST
Astronomical Twilight 5:30 AM CST 6:08 PM CST
Moon 12:16 PM CST (12/21) 12:54 AM CST (12/21)
Length of Visible Light 10h 25m
Length of Day
9h 25m
Waxing Gibbous, 65% of the Moon is Illuminated
Dec 21
Waxing Gibbous
Dec 28
Full
Jan 4
Last Quarter
Jan 11
New
Jan 18
First Quarter

Hourly Weather History & Observations

Time (CST) Temp. Windchill Dew Point Humidity Pressure Visibility Wind Dir Wind Speed Gust Speed Precip Events Conditions
12:15 AM 30.2 °F 15.7 °F 24.3 °F 79% 29.78 in 5.0 mi West 27.6 mph 36.8 mph N/A Snow Light Snow
12:35 AM 30.2 °F 15.9 °F 24.1 °F 78% 29.78 in 5.0 mi West 26.5 mph 39.1 mph N/A Snow Light Snow
12:55 AM 29.8 °F 16.0 °F 24.6 °F 81% 29.80 in 3.0 mi West 24.2 mph 35.7 mph N/A Snow Light Snow
1:15 AM 29.7 °F 15.2 °F 23.9 °F 79% 29.80 in 4.0 mi West 26.5 mph 38.0 mph N/A Snow Light Snow
1:35 AM 29.8 °F 14.9 °F 23.4 °F 77% 29.81 in 7.0 mi West 28.8 mph 39.1 mph N/A Snow Light Snow
1:55 AM 29.7 °F 14.7 °F 23.0 °F 76% 29.82 in 7.0 mi West 28.8 mph 40.3 mph N/A Snow Light Snow
2:15 AM 29.7 °F 15.0 °F 23.0 °F 76% 29.83 in 10.0 mi West 27.6 mph 40.3 mph N/A   Overcast
2:35 AM 29.7 °F 15.8 °F 23.0 °F 76% 29.84 in 7.0 mi West 24.2 mph 36.8 mph N/A   Overcast
2:55 AM 29.3 °F 14.2 °F 22.8 °F 77% 29.85 in 7.0 mi West 28.8 mph 39.1 mph N/A   Overcast
3:15 AM 29.1 °F 14.0 °F 23.0 °F 78% 29.85 in 7.0 mi West 28.8 mph 34.5 mph N/A   Overcast
3:35 AM 28.8 °F 13.7 °F 22.8 °F 78% 29.86 in 7.0 mi West 27.6 mph 34.5 mph N/A Snow Light Snow
3:55 AM 28.9 °F 15.1 °F 22.3 °F 76% 29.87 in 10.0 mi West 23.0 mph 38.0 mph N/A   Overcast
4:15 AM 28.8 °F 15.2 °F 22.1 °F 76% 29.88 in 10.0 mi West 21.9 mph 35.7 mph N/A   Overcast
4:35 AM 28.4 °F 13.8 °F 21.7 °F 76% 29.88 in 10.0 mi West 25.3 mph 34.5 mph N/A   Overcast
4:55 AM 28.4 °F 13.5 °F 21.4 °F 75% 29.90 in 10.0 mi West 26.5 mph 36.8 mph N/A   Overcast
5:15 AM 28.2 °F 14.2 °F 21.4 °F 76% 29.90 in 10.0 mi West 23.0 mph 32.2 mph N/A   Overcast
5:35 AM 27.5 °F 12.3 °F 20.7 °F 75% 29.91 in 10.0 mi West 26.5 mph 38.0 mph N/A   Mostly Cloudy
5:55 AM 27.1 °F 12.4 °F 20.3 °F 75% 29.92 in 10.0 mi West 24.2 mph 34.5 mph N/A   Scattered Clouds
6:15 AM 26.6 °F 12.0 °F 20.1 °F 77% 29.93 in 10.0 mi West 23.0 mph 28.8 mph N/A   Clear
6:35 AM 26.6 °F 12.7 °F 20.1 °F 77% 29.93 in 10.0 mi West 20.7 mph 33.4 mph N/A   Clear
6:55 AM 26.4 °F 12.5 °F 19.8 °F 76% 29.94 in 10.0 mi West 20.7 mph 32.2 mph N/A   Clear
7:15 AM 26.4 °F 11.2 °F 19.4 °F 75% 29.96 in 10.0 mi West 25.3 mph 32.2 mph N/A   Clear
7:35 AM 26.2 °F 11.9 °F 19.8 °F 76% 29.96 in 10.0 mi West 21.9 mph 31.1 mph N/A   Clear
7:55 AM 26.4 °F 13.2 °F 19.6 °F 75% 29.98 in 10.0 mi West 18.4 mph 26.5 mph N/A   Clear
8:15 AM 27.0 °F 12.5 °F 20.1 °F 75% 30.00 in 10.0 mi West 23.0 mph 29.9 mph N/A   Scattered Clouds
8:35 AM 27.1 °F 12.4 °F 19.8 °F 74% 30.01 in 10.0 mi West 24.2 mph 34.5 mph N/A   Scattered Clouds
8:55 AM 27.3 °F 14.4 °F 19.9 °F 74% 30.02 in 10.0 mi West 18.4 mph 31.1 mph N/A   Mostly Cloudy
9:15 AM 27.5 °F 12.9 °F 19.4 °F 72% 30.03 in 10.0 mi WNW 24.2 mph 35.7 mph N/A   Scattered Clouds
9:35 AM 28.4 °F 15.1 °F 20.5 °F 72% 30.04 in 10.0 mi WNW 20.7 mph 25.3 mph N/A   Scattered Clouds
9:55 AM 29.1 °F 16.4 °F 20.7 °F 71% 30.05 in 10.0 mi West 19.6 mph 32.2 mph N/A   Clear
10:15 AM 30.0 °F 17.9 °F 21.0 °F 69% 30.05 in 10.0 mi West 18.4 mph - N/A   Clear
10:35 AM 30.6 °F 18.2 °F 21.4 °F 69% 30.05 in 10.0 mi West 19.6 mph 27.6 mph N/A   Clear
10:55 AM 30.9 °F 19.1 °F 21.7 °F 69% 30.05 in 10.0 mi West 18.4 mph 26.5 mph N/A   Clear
11:15 AM 31.5 °F 19.4 °F 22.3 °F 69% 30.06 in 10.0 mi West 19.6 mph 28.8 mph N/A   Clear
11:35 AM 32.0 °F 19.5 °F 22.6 °F 68% 30.06 in 10.0 mi West 21.9 mph 33.4 mph N/A   Clear
11:55 AM 32.2 °F 18.1 °F 22.8 °F 68% 30.06 in 10.0 mi West 28.8 mph 33.4 mph N/A   Clear
12:15 PM 32.9 °F 19.3 °F 23.0 °F 67% 30.06 in 10.0 mi West 27.6 mph 32.2 mph N/A   Clear
12:35 PM 33.3 °F 21.2 °F 23.2 °F 67% 30.06 in 10.0 mi West 21.9 mph 31.1 mph N/A   Clear
12:55 PM 33.6 °F 22.6 °F 22.5 °F 64% 30.07 in 10.0 mi WNW 18.4 mph 27.6 mph N/A   Clear
1:15 PM 34.2 °F 21.8 °F 22.1 °F 61% 30.08 in 10.0 mi West 24.2 mph 31.1 mph N/A   Clear
1:35 PM 34.3 °F 22.9 °F 20.8 °F 58% 30.08 in 10.0 mi West 20.7 mph 32.2 mph N/A   Clear
1:55 PM 34.5 °F 22.8 °F 21.2 °F 58% 30.08 in 10.0 mi West 21.9 mph 29.9 mph N/A   Clear
2:15 PM 35.1 °F 23.8 °F 21.2 °F 57% 30.09 in 10.0 mi West 20.7 mph 27.6 mph N/A   Clear
2:35 PM 35.2 °F 23.8 °F 21.4 °F 57% 30.10 in 10.0 mi West 21.9 mph 28.8 mph N/A   Clear
2:55 PM 35.6 °F 25.5 °F 21.7 °F 57% 30.10 in 10.0 mi West 17.3 mph 23.0 mph N/A   Clear
3:15 PM 34.7 °F 24.3 °F 20.1 °F 55% 30.11 in 10.0 mi WNW 17.3 mph 24.2 mph N/A   Clear
3:35 PM 34.5 °F 23.4 °F 19.8 °F 55% 30.11 in 10.0 mi West 19.6 mph 31.1 mph N/A   Clear
3:55 PM 33.8 °F 22.5 °F 19.8 °F 56% 30.11 in 10.0 mi West 19.6 mph 27.6 mph N/A   Clear
4:15 PM 33.3 °F 20.9 °F 19.4 °F 57% 30.13 in 10.0 mi West 23.0 mph 29.9 mph N/A   Clear
4:35 PM 32.9 °F 21.3 °F 19.2 °F 57% 30.14 in 10.0 mi West 19.6 mph 28.8 mph N/A   Clear
4:55 PM 32.2 °F 20.4 °F 19.6 °F 60% 30.15 in 10.0 mi West 19.6 mph 24.2 mph N/A   Clear
5:15 PM 32.0 °F 22.1 °F 19.0 °F 59% 30.16 in 10.0 mi West 13.8 mph 28.8 mph N/A   Clear
5:35 PM 31.8 °F 21.8 °F 20.5 °F 63% 30.17 in 10.0 mi West 13.8 mph 20.7 mph N/A   Clear
5:55 PM 31.6 °F 21.2 °F 19.2 °F 60% 30.18 in 10.0 mi West 15.0 mph 24.2 mph N/A   Clear
6:15 PM 31.1 °F 20.1 °F 18.9 °F 61% 30.19 in 10.0 mi West 16.1 mph 23.0 mph N/A   Clear
6:35 PM 30.9 °F 21.2 °F 18.5 °F 60% 30.20 in 10.0 mi West 12.7 mph 23.0 mph N/A   Clear
6:55 PM 30.6 °F 22.4 °F 19.2 °F 63% 30.21 in 10.0 mi WNW 9.2 mph 16.1 mph N/A   Clear
7:15 PM 30.0 °F 20.5 °F 18.5 °F 62% 30.22 in 10.0 mi WNW 11.5 mph 17.3 mph N/A   Clear
7:35 PM 29.5 °F 19.9 °F 18.9 °F 65% 30.23 in 10.0 mi WNW 11.5 mph 16.1 mph N/A   Clear
7:55 PM 28.9 °F 19.8 °F 19.0 °F 67% 30.24 in 10.0 mi WNW 10.4 mph - N/A   Clear
8:15 PM 28.4 °F 19.1 °F 18.9 °F 67% 30.24 in 10.0 mi WNW 10.4 mph 16.1 mph N/A   Clear
8:35 PM 28.4 °F 18.5 °F 18.5 °F 66% 30.24 in 10.0 mi WNW 11.5 mph - N/A   Clear
8:55 PM 27.7 °F 19.6 °F 18.7 °F 69% 30.24 in 10.0 mi WNW 8.1 mph - N/A   Clear
9:15 PM 27.3 °F 18.4 °F 19.0 °F 71% 30.25 in 10.0 mi WNW 9.2 mph - N/A   Clear
9:35 PM 27.0 °F 19.5 °F 18.7 °F 71% 30.25 in 10.0 mi WNW 6.9 mph - N/A   Clear
9:55 PM 26.6 °F 16.8 °F 18.3 °F 71% 30.25 in 10.0 mi WNW 10.4 mph - N/A   Clear
10:15 PM 26.4 °F 17.3 °F 18.1 °F 71% 30.26 in 10.0 mi WNW 9.2 mph - N/A   Clear
10:35 PM 26.1 °F 17.6 °F 18.1 °F 72% 30.27 in 10.0 mi WNW 8.1 mph - N/A   Clear
10:55 PM 25.7 °F 15.7 °F 17.8 °F 72% 30.28 in 10.0 mi WNW 10.4 mph - N/A   Clear
11:15 PM 25.5 °F 16.2 °F 17.4 °F 71% 30.27 in 10.0 mi West 9.2 mph - N/A   Clear
11:35 PM 24.8 °F 16.9 °F 17.4 °F 74% 30.27 in 10.0 mi WNW 6.9 mph - N/A   Clear
11:55 PM 24.6 °F 17.7 °F 17.4 °F 74% 30.26 in 10.0 mi WNW 5.8 mph - N/A   Clear